Regional Weather Roundup
Issued by NWS Charleston, SC

Current Version | Previous Version | Graphics & Text | Print | Product List | Glossary On
Versions: 1 2 3 4 5 6 7 8 9 10 11 12 13 14 15 16 17 18 19 20 21 22 23 24 25 26 27 28 29 30 31 32 33 34 35 36 37 38 39 40 41 42 43 44 45 46 47 48 49 50
000
ASUS42 KCHS 110410
RWRCHS

REGIONAL WEATHER ROUNDUP
NATIONAL WEATHER SERVICE CHARLESTON SC
1200 AM EDT FRI JUL 11 2014

NOTE: "FAIR" INDICATES FEW OR NO CLOUDS BELOW 12,000 FEET WITH NO
SIGNIFICANT WEATHER AND/OR OBSTRUCTIONS TO VISIBILITY.

NOT ALL STATIONS ARE QUALITY CONTROLLED BY THE NATIONAL
WEATHER SERVICE. USE DATA WITH CAUTION...ESPECIALLY
DEWPOINT OBSERVATIONS.

SCZ027-030-031-034>040-042>050-110500-
...SOUTH CAROLINA...

CITY           SKY/WX    TMP DP  RH WIND       PRES   REMARKS
N CHARLESTON   CLOUDY    80  67  64 SW9       30.09F
WATERFRONT PRK   N/A     82 N/A N/A SW6         N/A
FORT JOHNSON   NOT AVBL
MOUNT PLEASANT FAIR      81  72  74 SW7       30.10R
JOHNS ISLAND   CLEAR     81  66  61 CALM      30.10R
PINOPOLIS        N/A     81  72  74 SW12G20   30.01R
MONCKS CORNER    N/A     79  73  83 SW3       30.11R
SUMMERVILLE    FAIR      73  72  94 CALM      30.11S
BEAUFORT MCAS  CLOUDY    77  71  82 W6        30.09F
BEAUFORT ARPT  FAIR      77  72  83 SW5       30.09S
HILTON HEAD IS CLOUDY    77  72  83 S5        30.11S
GEORGETOWN     NOT AVBL
WALTERBORO     CLOUDY    77  73  88 CALM      30.11S
ORANGEBURG     CLOUDY    75  69  81 CALM      30.12R
BARNWELL       MOCLDY    73  73 100 CALM      30.10R
AIKEN          MOCLDY    73  73 100 NW6       30.13F
MANNING        MOCLDY    73 N/A N/A N3        30.11R
KINGSTREE      NOT AVBL
COLUMBIA       TSTM      74  72  93 E14       30.10R VSB 1/2
SUMTER         LGT RAIN  73  72  94 NE3       30.10R
FLORENCE       TSTM      71  67  87 SW8       30.11S
MYRTLE BEACH   MOCLDY    75  66  73 NW8       30.13R THUNDER
N MYRTLE BEACH LGT RAIN  73  70  90 NE5       30.11S

$$

GAZ063-065-086>088-099>101-113>116-118-119-134-136>141-150-110500-
...GEORGIA...

CITY           SKY/WX    TMP DP  RH WIND       PRES   REMARKS
SAVANNAH ARPT  CLOUDY    73  72  94 S5        30.10S
HUNTER AAF     CLOUDY    74  73  97 S2        30.08S
FORT STEWART   CLOUDY    74  72  93 S3        30.09S
STATESBORO     NOT AVBL
SYLVANIA       CLOUDY    74  74 100 CALM      30.10F
CLAXTON        FAIR     N/A N/A N/A CALM      30.09S
THOMSON        PTCLDY    75  75 100 CALM      30.15S
AUGUSTA-BUSH   MOCLDY    74  70  87 CALM      30.08F
AUGUSTA-DANIEL MOCLDY    77  71  82 NW3       30.10F
SWAINSBORO     FAIR      75  75 100 CALM      30.11R
VIDALIA        RAIN      73  72  94 S6        30.11R
ALMA           MOCLDY    72  71  97 CALM      30.11R
WAYCROSS       MOCLDY    79  75  87 CALM      30.11R
JESUP          NOT AVBL
BRUNSWICK      CLOUDY    77  72  83 CALM      30.11S
SAINT SIMONS   MOCLDY    78  72  81 SW3       30.10S

$$

SCZ027-028-034-036>038-045-046-048>050-GAZ119-141-110500-
...LAKE AND SUPPLEMENTAL COASTAL OBSERVATIONS...

STATION/POSITION TIME  TEMP    WIND        PRES    WAVE   SWELL
                       AIR SEA DIR/SP/G            HT/PER HT/PER/DIR
                 (UTC) (F)     (DEG/KT/KT) (MB)    (FT/S) (FT/S/D)
UPR LAKE MARION  NOT AVBL
WINYAH BAY       0300   82     200/ 10     1019.0S
LAKE MURRAY      0300   78      90/  9/ 11 1018.6R
ACE BASIN NERRS  0300   79     210/  1     1019.0S
FORT PULASKI     0400   76 78  220/  5/  8   N/A
SAPELO ISLAND    0300   78     300/  4     1020.0S

$$

ANZ835-935-AMZ111-154-330-350-352-354-374-450-454-472-110500-
...C-MAN AND BUOY OBSERVATIONS...

STATION/POSITION TIME  TEMP    WIND        PRES    WAVE   SWELL
                       AIR SEA DIR/SP/G            HT/PER HT/PER/DIR
                 (UTC) (F)     (DEG/KT/KT) (MB)    (FT/S) (FT/S/D)
FOLLY BEACH CMAN 0300   81     230/ 11/ 15 1019.5R
BUOY 41004       0400   81 82  200/ 14/ 16 1018.9R   4/ 5   2/ 7
BUOY 41008       0400   82 84  190/ 14/ 16 1019.2F   3/ 4   2/110/ 8
5E ST. MARYS GA  0400      83                N/A     2/ 9
FRYING PAN BUOY  NOT AVBL
BUOY 41025       0400          VRB  8/ 10  1019.9R   4/ 6   3/170/ 6
CAPE LOOKOUT NC  0300   81     210/ 12/ 18 1019.8S
BUOY 41002       0322   81 81  190/ 12/ 14 1022.7F   3/ 9   2/110/ 9
BUOY 41010       0400   81 83  130/  8/  8 1021.3R   2/ 9   2/100/ 9
BUOY 41012       NOT AVBL
ST AUGUSTINE FL  0400   77     200/  6/  7 1020.5F
CAPERS NEARSHORE 0300   82     260/ 17/ 21   N/A
FRIPP NEARSHORE  0300   81     250/ 14/ 17   N/A


$$


USA.gov is the U.S. government's official web portal to all federal, state and local government web resources and services.